Radioactive Concentration measured by Seawater Radiation Monitor near Fukushima Daiichi Nuclear Power Station
Date,Time,Cs137(Bq/L),Cs134(Bq/L),Total β(Bq/L)
2016/12/17,00:00,1.1,0.11,15
2016/12/17,00:10,1.1,0.13,13
2016/12/17,00:20,1.1,0.13,10
2016/12/17,00:30,1.0,0.14,10
2016/12/17,00:40,0.99,0.15,10
2016/12/17,00:50,0.96,0.15,11
2016/12/17,01:00,0.95,0.14,ND
2016/12/17,01:10,0.93,0.14,9.7
2016/12/17,01:20,0.91,0.15,13
2016/12/17,01:30,0.91,0.11,10
2016/12/17,01:40,0.93,0.094,9.6
2016/12/17,01:50,0.94,0.096,9.3
2016/12/17,02:00,0.91,0.098,9.7
2016/12/17,02:10,0.94,0.093,8.8
2016/12/17,02:20,0.93,0.089,ND
2016/12/17,02:30,0.95,0.085,12
2016/12/17,02:40,0.94,0.095,13
2016/12/17,02:50,0.88,0.12,14
2016/12/17,03:00,0.88,0.12,12
2016/12/17,03:10,0.83,0.13,13
2016/12/17,03:20,0.82,0.13,13
2016/12/17,03:30,0.81,0.13,ND
2016/12/17,03:40,0.83,0.12,9.2
2016/12/17,03:50,0.87,0.10,9.3
2016/12/17,04:00,0.88,0.11,14
2016/12/17,04:10,0.87,0.11,14
2016/12/17,04:20,0.84,0.14,12
2016/12/17,04:30,0.83,0.14,14
2016/12/17,04:40,0.83,0.14,11
2016/12/17,04:50,0.84,0.14,11
2016/12/17,05:00,0.82,0.13,ND
2016/12/17,05:10,0.85,0.13,ND
2016/12/17,05:20,0.90,0.11,ND
2016/12/17,05:30,0.89,0.11,ND
2016/12/17,05:40,0.87,0.11,ND
2016/12/17,05:50,0.91,0.10,ND
2016/12/17,06:00,0.92,0.10,ND
2016/12/17,06:10,0.90,0.097,ND
2016/12/17,06:20,0.89,0.098,ND
2016/12/17,06:30,0.92,0.095,ND
2016/12/17,06:40,0.93,0.089,10
2016/12/17,06:50,0.86,0.12,12
2016/12/17,07:00,0.84,0.12,13
2016/12/17,07:10,0.85,0.11,ND
2016/12/17,07:20,0.85,0.11,ND
2016/12/17,07:30,0.85,0.11,ND
2016/12/17,07:40,0.89,0.082,ND
2016/12/17,07:50,0.89,0.069,ND
2016/12/17,08:00,0.90,0.071,ND
2016/12/17,08:10,0.88,0.074,ND
2016/12/17,08:20,0.87,0.074,ND
2016/12/17,08:30,0.87,0.081,ND
2016/12/17,08:40,0.87,0.080,ND
2016/12/17,08:50,0.90,0.078,ND
2016/12/17,09:00,0.90,0.083,ND
2016/12/17,09:10,0.93,0.087,ND
2016/12/17,09:20,0.92,0.097,ND
2016/12/17,09:30,0.96,0.083,ND
2016/12/17,09:40,0.94,0.087,ND
2016/12/17,09:50,0.94,0.092,ND
2016/12/17,10:00,0.94,0.091,ND
2016/12/17,10:10,0.95,0.090,ND
2016/12/17,10:20,0.95,0.091,ND
2016/12/17,10:30,0.97,0.091,ND
2016/12/17,10:40,0.97,0.096,ND
2016/12/17,10:50,0.98,0.098,ND
2016/12/17,11:00,0.98,0.098,ND
2016/12/17,11:10,0.98,0.10,ND
2016/12/17,11:20,0.99,0.097,ND
2016/12/17,11:30,0.97,0.11,ND
2016/12/17,11:40,0.98,0.10,ND
2016/12/17,11:50,0.99,0.095,ND
2016/12/17,12:00,0.99,0.089,ND
2016/12/17,12:10,0.98,0.090,ND
2016/12/17,12:20,0.99,0.086,9.9
2016/12/17,12:30,0.98,0.087,10
2016/12/17,12:40,0.93,0.12,14
2016/12/17,12:50,0.96,0.12,14
2016/12/17,13:00,0.99,0.12,12
2016/12/17,13:10,0.97,0.12,11
2016/12/17,13:20,1.0,0.090,ND
2016/12/17,13:30,0.99,0.12,ND
2016/12/17,13:40,1.1,0.091,ND
2016/12/17,13:50,0.99,0.10,ND
2016/12/17,14:00,0.94,0.13,ND
2016/12/17,14:10,0.95,0.13,ND
2016/12/17,14:20,0.93,0.13,ND
2016/12/17,14:30,0.92,0.13,ND
2016/12/17,14:40,0.93,0.12,ND
2016/12/17,14:50,0.94,0.12,ND
2016/12/17,15:00,0.92,0.13,ND
2016/12/17,15:10,0.91,0.12,ND
2016/12/17,15:20,0.89,0.12,ND
2016/12/17,15:30,0.90,0.10,ND
2016/12/17,15:40,0.88,0.10,ND
2016/12/17,15:50,0.88,0.089,ND
2016/12/17,16:00,0.87,0.084,ND
2016/12/17,16:10,0.85,0.081,ND
2016/12/17,16:20,0.85,0.081,ND
2016/12/17,16:30,0.86,0.072,ND
2016/12/17,16:40,0.86,0.064,ND
2016/12/17,16:50,0.85,0.069,ND
2016/12/17,17:00,0.79,0.099,ND
2016/12/17,17:10,0.79,0.099,ND
2016/12/17,17:20,0.82,0.073,ND
2016/12/17,17:30,0.82,0.078,ND
2016/12/17,17:40,0.82,0.075,ND
2016/12/17,17:50,0.84,0.077,ND
2016/12/17,18:00,0.88,0.071,ND
2016/12/17,18:10,0.90,0.072,ND
2016/12/17,18:20,0.88,0.080,ND
2016/12/17,18:30,0.86,0.088,ND
2016/12/17,18:40,0.86,0.096,ND
2016/12/17,18:50,0.87,0.079,ND
2016/12/17,19:00,0.85,0.082,ND
2016/12/17,19:10,0.84,0.081,ND
2016/12/17,19:20,0.86,0.068,ND
2016/12/17,19:30,0.86,0.069,8.8
2016/12/17,19:40,0.87,0.064,9.6
2016/12/17,19:50,0.86,0.076,ND
2016/12/17,20:00,0.86,0.084,11
2016/12/17,20:10,0.86,0.10,9.3
2016/12/17,20:20,0.88,0.11,ND
2016/12/17,20:30,0.90,0.11,ND
2016/12/17,20:40,0.91,0.12,ND
2016/12/17,20:50,0.92,0.12,ND
2016/12/17,21:00,0.94,0.12,ND
2016/12/17,21:10,0.95,0.11,ND
2016/12/17,21:20,0.92,0.12,ND
2016/12/17,21:30,0.93,0.11,ND
2016/12/17,21:40,0.94,0.097,ND
2016/12/17,21:50,0.93,0.11,ND
2016/12/17,22:00,0.92,0.11,ND
2016/12/17,22:10,0.92,0.10,ND
2016/12/17,22:20,0.95,0.096,ND
2016/12/17,22:30,0.95,0.095,ND
2016/12/17,22:40,1.0,0.091,ND
2016/12/17,22:50,1.0,0.087,ND
2016/12/17,23:00,1.0,0.093,ND
2016/12/17,23:10,1.0,0.085,ND
2016/12/17,23:20,0.98,0.088,ND
2016/12/17,23:30,0.98,0.095,ND
2016/12/17,23:40,0.94,0.095,ND
2016/12/17,23:50,0.96,0.098,ND
